Showing default

GHGSAT-C3, 52737

Orbit data source: Space-Track

GHGSAT-C3, 52737 is a payload satellite owned by GHG (CA) in SSO that was launched on Wed, 25 May 2022 UTC via an FALCON 9 launch vehicle from the Air Force Eastern Test Range (AFETR). Payload-class satellites include a variety of spacecraft equipped with specific instruments for various scientific and technological missions. These include communications satellites like Starlink; space stations such as the ISS; scientific satellites like the Hubble; Earth observation satellites from companies like Planet Labs, Umbra, and HawkEye 360; GPS; miniature CubeSats for education and research; and military/defense satellites.

Loading next visibility...
Identifier
52737, 2022-057F
Orbit
SSO
Country
Flag of CACA
Related business
Manufacturer
UTIAS-SFL
Mission
Operational Commercial Earth Obs Sci
Bus & Motor
NEMO-V1, Unknown motor
Mass
15 kg wet, 15 kg dry
Launch date (UTC)
2022-05-25 (4 years ago)
Launch vehicle
FALCON 9
Launch site
Air Force Eastern Test Range (AFETR)
Object type
Payload
Rocket body
Debris
Shape & HBR
Box, 1.0 m
Radar Cross Section
0.100 m², Medium (>0.1 m² and < 1m²)

Expand to show TLE details & history
Last TLE update: 14 hours ago

TLE from 14 hours ago
0 GHGSAT-C3
1 52737U 22057F   25349.94924558  .00005795  00000-0  19367-3 0  9994
2 52737  97.6335 124.4503 0007364  57.9838 302.2118 15.31403441197468
Epoch: 2025-12-15T22:46Z
TLE epoch observation values (Epoch: 2025-12-15T22:46:54.818Z)
Latitude
0.00007°
Longitude
57.88141°
Altitude
472.037 km
Speed
7.631 km/s
True Right ascension
08h 17m 48s
True Declination
0° 00' 00"
Sunlit
Object was in full shadow at epoch
Visualization orbit readout
Latitude
Unknown
Longitude
Unknown
Altitude
Unknown
Speed
Unknown
Apparent Right ascension
Unknown
Apparent Declination
Unknown
Sunlit
N/A
Visualization observer readout
Local Sidereal Time
11:01:54
Azimuth
Unknown
Elevation
Unknown
Doppler factor
Unknown
Orbital elements
Apogee altitude
473.627 km
Perigee altitude
463.543 km
Semi-major axis
6,846.722 km
Eccentricity
0.00074
Inclination
97.6335°
RAAN
124.4503°
Arg. of periapsis
57.9838°
True anomaly
302.14037°
Mean anomaly
302.2118°
Eccentric anomaly
302.17609°
Mean motion
3.83106 °/min
Orbital period
93.97 mins
BSTAR
0.00019367
Loading maneuver chart data...
Computing Atmospheric mass density...

Documentation

Showing up to 5 results
|